Regional Weather Roundup
Issued by NWS Northern Indiana

Home | Current Version | Previous Version | Graphics & Text | Print | Product List | Glossary On
Versions: 1 2 3 4 5 6 7 8 9 10 11 12 13 14 15 16 17 18 19 20 21 22 23 24 25 26 27 28 29 30 31 32 33 34 35 36 37 38 39 40 41 42 43 44 45 46 47 48 49 50
000
ASUS43 KIWX 170010
RWRIWX

KIWX WEATHER ROUNDUP
NATIONAL WEATHER SERVICE NORTHERN INDIANA
700 PM EST FRI FEB 16 2018

NOTE: "FAIR" INDICATES FEW OR NO CLOUDS BELOW 12,000 FEET WITH NO
SIGNIFICANT WEATHER AND/OR OBSTRUCTIONS TO VISIBILITY.

* THESE STATIONS ARE NOT UNDER NWS QUALITY CONTROL. THEY ALSO MAY NOT
  REPORT WEATHER SUCH AS PRECIPITATION OR FOG.

INZ001>027-170100-
NORTHERN INDIANA

CITY           SKY/WX    TMP DP  RH WIND       PRES   REMARKS
GARY*          CLEAR     30  18  59 CALM      30.28R
VALPARAISO     MOCLDY    28  21  75 CALM      30.27R
6HR MIN TEMP:  28; 6HR MAX TEMP:  37;

MICHIGAN CITY* FAIR      28  19  69 CALM      30.28R
LAPORTE*       FAIR      25  19  77 N3        30.27R
6HR MIN TEMP:  25; 6HR MAX TEMP:  33;

KNOX*          MOCLDY    32  23  69 CALM      30.26S
SOUTH BEND     FAIR      24  17  74 NW5       30.26S WCI  18
6HR MIN TEMP:  24; 6HR MAX TEMP:  33; 6HR PCP: TRACE;

ELKHART*       FAIR      28  18  64 CALM      30.25S
GOSHEN         FAIR      28  19  69 NW3       30.25S
6HR MIN TEMP:  27; 6HR MAX TEMP:  33;

MONTICELLO*    MOCLDY    32  22  66 W3        30.28R
6HR MIN TEMP:  31; 6HR MAX TEMP:  35;

LOGANSPORT*    CLOUDY    32  23  69 CALM      30.29R
ROCHESTER*     FAIR      32  23  69 CALM      30.27S
WARSAW*        FAIR      28  21  74 CALM      30.26S
AUBURN*        CLOUDY    32  21  64 W3        30.26S
FORT WAYNE     MOCLDY    32  22  66 W6        30.27S WCI  26
6HR MIN TEMP:  32; 6HR MAX TEMP:  38;

HUNTINGTON*    CLOUDY    31  21  65 N3        30.27S
6HR MIN TEMP:  31; 6HR MAX TEMP:  35;

PERU/GRISSOM   FAIR      30  23  75 CALM      30.27S
6HR MIN TEMP:  30; 6HR MAX TEMP:  35;

MARION*        CLOUDY    32  23  71 NW7       30.29R WCI  25
6HR MIN TEMP: -17; 6HR MAX TEMP:  58;


$$
INZ028>050-170100-
CENTRAL INDIANA

CITY           SKY/WX    TMP DP  RH WIND       PRES   REMARKS
LAFAYETTE      CLOUDY    32  23  69 NW6       30.30R WCI  26
6HR MIN TEMP:  32; 6HR MAX TEMP:  36;

KOKOMO*        CLOUDY    31  23  72 CALM      30.29R
6HR MIN TEMP:  31; 6HR MAX TEMP:  35;

MUNCIE*        CLOUDY    34  22  61 N6        30.28R WCI  29
6HR MIN TEMP:  34; 6HR MAX TEMP:  38;

INDIANAPOLIS   CLOUDY    34  22  61 N5        30.29R WCI  30
6HR MIN TEMP:  34; 6HR MAX TEMP:  37;


$$
MIZ043>046-050>051-056>058-064>065-071>073-077>080-170100-
SOUTHWEST LOWER MICHIGAN

CITY           SKY/WX    TMP DP  RH WIND       PRES   REMARKS
BATTLE CREEK   MOCLDY    27  18  69 W6        30.23R WCI  20
6HR MIN TEMP:  27; 6HR MAX TEMP:  32;

BENTON HARBOR  FAIR      28  16  60 CALM      30.27R
6HR MIN TEMP:  28; 6HR MAX TEMP:  34;

COLDWATER*     FAIR      27  16  63 W5        30.24R WCI  21
6HR MIN TEMP:  27; 6HR MAX TEMP:  33;

HILLSDALE*     MOCLDY    28  16  59 W6        30.21S WCI  22
HOLLAND        FAIR      26  16  65 W3        30.26R
6HR MIN TEMP:  26; 6HR MAX TEMP:  33; 6HR PCP: TRACE;

GRAND RAPIDS   FAIR      28  16  60 W8        30.24R WCI  20
6HR MIN TEMP:  28; 6HR MAX TEMP:  35;

KALAMAZOO      FAIR      28  15  58 NW8       30.25R WCI  20
6HR MIN TEMP:  28; 6HR MAX TEMP:  33;

STURGIS*       FAIR      28  18  65 CALM      30.24R
6HR MIN TEMP:  28; 6HR MAX TEMP:  33;

THREE RIVERS*  FAIR      27  17  65 CALM      30.25S
6HR MIN TEMP:  27; 6HR MAX TEMP:  34;


$$
OHZ001>008-015>018-024>025-170100-
NORTHWEST OHIO

CITY           SKY/WX    TMP DP  RH WIND       PRES   REMARKS
WAUSEON*       MOCLDY    30  25  80 W5        30.25R WCI  25
DEFIANCE       FAIR      30  20  66 VRB5      30.26R WCI  25
6HR MIN TEMP:  30; 6HR MAX TEMP:  35;

FINDLAY        CLOUDY    32  19  58 NW8       30.26R WCI  25
6HR MIN TEMP:  32; 6HR MAX TEMP:  38;

TOLEDO EXPRESS FAIR      31  19  61 W3        30.25R
6HR MIN TEMP:  30; 6HR MAX TEMP:  37;

TOLEDO METCALF CLOUDY    32  19  58 W7        30.27R WCI  26
6HR MIN TEMP:  31; 6HR MAX TEMP:  38;

LIMA           CLOUDY    30  22  72 NW6       30.26R WCI  24
6HR MIN TEMP:  30; 6HR MAX TEMP:  37;


$$
AND FOR LAKE MICHIGAN COASTAL AND OPEN LAKE BUOY OBSERVATIONS

STATION/POSITION TEMP    WIND        PRES    VSBY  WAVE
                 AIR SEA DIR/SP/G                  HT/PER
                 (F)     (DEG/KT/KT) (MB)    (MI)  (FT/S)
CALUMET HARBOR    31     160/  2/  4 1024.4R
MICHIGAN CITY     29     330/  3/  4   N/A
BURNS HARBOR      30      30/  5/  6 1025.4S
SAINT JOSEPH      29     330/  5/  7 1025.7

$$
&&




USA.gov is the U.S. government's official web portal to all federal, state and local government web resources and services.